527  
ASUS41 KRLX 180610  
RWRRLX  
REGIONAL WEATHER ROUNDUP  
NATIONAL WEATHER SERVICE CHARLESTON WV  
200 AM EDT SUN AUG 18 2019  
 
NOTE: "FAIR" INDICATES FEW OR NO CLOUDS BELOW 12,000 FEET WITH NO  
SIGNIFICANT WEATHER AND/OR S TO VISIBILITY
.  
 
WVZ003-180700-  
NORTHERN PANHANDLE OF WEST VIRGINIA  
 
CITY SKY/WX TMP DP RH WIND PRES REMARKS
 
WHEELING FAIR 72 68 87 S3 30.01S  

 
 
WVZ009-180700-  
NORTHWEST WEST VIRGINIA  
 
CITY SKY/WX TMP DP RH WIND PRES REMARKS
 
PARKERSBURG FAIR 71 69 93 CALM 30.02F FOG  

 
 
WVZ006-180700-  
WESTERN WEST VIRGINIA  
 
CITY SKY/WX TMP DP RH WIND PRES REMARKS
 
HUNTINGTON FAIR 71 70 96 E3 29.99S  

 
 
WVZ015-180700-  
WEST CENTRAL WEST VIRGINIA  
 
CITY SKY/WX TMP DP RH WIND PRES REMARKS
 
CHARLESTON FAIR 69 67 93 CALM 30.00F  

 
 
WVZ022-031-180700-  
NORTH CENTRAL WEST VIRGINIA  
 
CITY SKY/WX TMP DP RH WIND PRES REMARKS
 
MORGANTOWN FAIR 71 67 87 CALM 30.03F  
CLARKSBURG FAIR 71 67 87 CALM 30.02S  
BUCKHANNON FAIR 68 68 100 CALM 30.04F  

 
 
WVZ025-035-042-045-180700-  
SOUTHERN WEST VIRGINIA  
 
CITY SKY/WX TMP DP RH WIND PRES REMARKS
 
BECKLEY FAIR 71 63 75 SE6 30.09F  
LOGAN FAIR 72 68 88 CALM 30.04F  
PINEVILLE FAIR 67 65 94 MISG 30.10F  
BLUEFIELD FAIR 71 61 70 CALM 30.12F  
LEWISBURG FAIR 64 62 94 CALM 30.10F  

 
 
WVZ047-180700-  
NORTHERN MOUNTAINS OF WEST VIRGINIA  
 
CITY SKY/WX TMP DP RH WIND PRES REMARKS
 
ELKINS FAIR 66 63 90 CALM 30.08S  

 
 
WVZ052-180700-  
EASTERN PANHANDLE OF WEST VIRGINIA  
 
CITY SKY/WX TMP DP RH WIND PRES REMARKS
 
MARTINSBURG FAIR 73 68 84 CALM 29.96F  
PETERSBURG FAIR 67 66 97 CALM 30.02S  

 
 
SOUTHEAST OHIO/NORTHEAST KENTUCKY  
 
CITY SKY/WX TMP DP RH WIND PRES REMARKS
 
ATHENS FAIR 70 70 100 CALM 29.98F  
ASHLAND FAIR 72 72 100 CALM 29.98F FOG  

 
 
 
CLICK HERE TO GO TO PREVIOUS BULLETINS.

The Nexlab WV Page
The Nexlab OH Page
The Nexlab KY Page
The Nexlab VA Page Main Text Page